W4SNA-4 Weather Reports


Display with metric or nautical units.
time (UTC)temp
F
wind
direction
speed
MPH
gust
MPH
rain 1hr
in
rain 24hr
in
rain mn
in
humidity
%
barometer
mb
20260504034246 57 0 0.0 0.0 0.00 0.00 0.00 54 1011.4
20260504033745 58 0 0.0 0.0 0.00 0.00 0.00 53 1011.5
20260504033247 58 0 0.0 0.0 0.00 0.00 0.00 53 1011.5
20260504032746 58 0 0.0 0.0 0.00 0.00 0.00 52 1011.5
20260504032246 58 0 0.0 0.0 0.00 0.00 0.00 52 1011.6
20260504031750 58 0 0.0 0.0 0.00 0.00 0.00 51 1011.6
20260504031245 58 0 0.0 0.0 0.00 0.00 0.00 51 1011.6
20260504030742 58 0 0.0 0.0 0.00 0.00 0.00 50 1011.5
20260504030244 59 0 0.0 0.0 0.00 0.00 0.00 50 1011.5
20260504025745 59 0 0.0 0.0 0.00 0.00 0.00 50 1011.5
20260504025335 59 0 0.0 0.0 0.00 0.00 0.00 49 1011.5
20260504024826 59 0 0.0 0.0 0.00 0.00 0.00 49 1011.5
20260504024246 59 0 0.0 0.0 0.00 0.00 0.00 48 1011.5
20260504023746 59 0 0.0 0.0 0.00 0.00 0.00 48 1011.4
20260504023242 59 0 0.0 0.0 0.00 0.00 0.00 48 1011.4
20260504022246 59 0 0.0 0.0 0.00 0.00 0.00 46 1011.2
20260504021745 60 0 0.0 0.0 0.00 0.00 0.00 46 1011.2
20260504021241 60 0 0.0 0.0 0.00 0.00 0.00 45 1011.2
20260504020739 60 0 0.0 0.0 0.00 0.00 0.00 44 1011.0
20260504020239 60 0 0.0 0.0 0.00 0.00 0.00 44 1011.0
20260504015739 60 0 0.0 0.0 0.00 0.00 0.00 44 1011.0
20260504015241 60 0 0.0 0.0 0.00 0.00 0.00 43 1010.8
20260504014816 60 0 0.0 0.0 0.00 0.00 0.00 43 1010.8
20260504014739 60 0 0.0 0.0 0.00 0.00 0.00 43 1010.8
20260504014239 60 0 0.0 0.0 0.00 0.00 0.00 43 1010.8
20260504013739 60 0 0.0 0.0 0.00 0.00 0.00 43 1010.8
20260504013242 60 0 0.0 0.0 0.00 0.00 0.00 42 1010.8
20260504012550 60 0 0.0 0.0 0.00 0.00 0.00 42 1010.8
20260504012056 60 0 0.0 0.0 0.00 0.00 0.00 43 1010.7
20260504011556 61 0 0.0 0.0 0.00 0.00 0.00 43 1010.7
20260504011056 61 0 0.0 0.0 0.00 0.00 0.00 42 1010.7
20260504010556 61 0 0.0 0.0 0.00 0.00 0.00 42 1010.5
20260504010056 61 0 0.0 0.0 0.00 0.00 0.00 41 1010.5
20260504005550 61 0 0.0 0.0 0.00 0.00 0.00 42 1010.5
20260504005058 61 0 0.0 0.0 0.00 0.00 0.00 42 1010.5
20260504004550 61 0 0.0 0.0 0.00 0.00 0.00 42 1010.5
20260504004028 61 0 0.0 0.0 0.00 0.00 0.00 42 1010.5
20260504003550 61 0 0.0 0.0 0.00 0.00 0.00 42 1010.4
20260504003029 61 0 0.0 0.0 0.00 0.00 0.00 42 1010.4
20260504002420 61 0 0.0 0.0 0.00 0.00 0.00 42 1010.3
20260504001919 61 0 0.0 0.0 0.00 0.00 0.00 42 1010.3
20260504001420 61 0 0.0 0.0 0.00 0.00 0.00 42 1010.3
20260504000920 61 0 0.0 0.0 0.00 0.00 0.00 41 1010.3
20260504000419 61 0 0.0 0.0 0.00 0.00 0.00 42 1010.3
20260503235923 62 0 0.0 0.0 0.00 0.00 0.00 41 1010.3
20260503235419 62 0 0.0 0.0 0.00 0.00 0.00 41 1010.3
20260503234919 62 0 0.0 0.0 0.00 0.00 0.00 42 1010.3
20260503234420 63 0 0.0 0.0 0.00 0.00 0.00 40 1010.3
20260503233919 63 0 0.0 0.0 0.00 0.00 0.00 40 1010.3
20260503233419 63 0 0.0 0.0 0.00 0.00 0.00 40 1010.3
20260503232931 63 0 0.0 0.0 0.00 0.00 0.00 38 1010.3
20260503232419 64 0 0.0 0.0 0.00 0.00 0.00 38 1010.3
20260503231920 64 0 0.0 0.0 0.00 0.00 0.00 39 1010.3
20260503231419 64 0 0.0 0.0 0.00 0.00 0.00 38 1010.3
20260503230919 64 0 0.0 0.0 0.00 0.00 0.00 39 1010.3
20260503230420 64 0 0.0 0.0 0.00 0.00 0.00 38 1010.3
20260503225839 64 0 0.0 0.0 0.00 0.00 0.00 37 1010.3
20260503225333 64 0 0.0 0.0 0.00 0.00 0.00 40 1010.4
20260503224833 64 0 0.0 0.0 0.00 0.00 0.00 39 1010.4
20260503224333 64 0 0.0 0.0 0.00 0.00 0.00 38 1010.4
20260503223833 64 0 0.0 0.0 0.00 0.00 0.00 39 1010.5
20260503223333 64 0 0.0 1.0 0.00 0.00 0.00 37 1010.5
20260503222834 64 0 0.0 1.0 0.00 0.00 0.00 38 1010.5
20260503222333 64 0 0.0 0.0 0.00 0.00 0.00 37 1010.7
20260503221831 65 0 0.0 0.0 0.00 0.00 0.00 37 1010.7
20260503221330 65 0 0.0 0.0 0.00 0.00 0.00 36 1010.7
20260503220831 65 0 0.0 0.0 0.00 0.00 0.00 38 1010.8
20260503220331 65 0 0.0 0.0 0.00 0.00 0.00 42 1010.8
20260503215832 65 0 0.0 0.0 0.00 0.00 0.00 38 1010.8
20260503215336 65 0 0.0 0.0 0.00 0.00 0.00 38 1010.9
20260503214831 65 0 0.0 0.0 0.00 0.00 0.00 38 1010.9
20260503214333 65 0 0.0 0.0 0.00 0.00 0.00 36 1010.9
20260503213831 65 0 0.0 0.0 0.00 0.00 0.00 35 1011.1
20260503213330 65 0 0.0 0.0 0.00 0.00 0.00 37 1011.1
20260503212834 65 0 0.0 0.0 0.00 0.00 0.00 37 1011.1
20260503212331 65 0 0.0 0.0 0.00 0.00 0.00 37 1011.3
20260503211831 65 0 0.0 0.0 0.00 0.00 0.00 38 1011.3
20260503211331 65 0 0.0 1.0 0.00 0.00 0.00 34 1011.3
20260503210831 65 0 0.0 1.0 0.00 0.00 0.00 35 1011.4
20260503210331 65 0 0.0 0.0 0.00 0.00 0.00 36 1011.4
20260503205832 65 0 0.0 0.0 0.00 0.00 0.00 38 1011.4
20260503205331 65 0 0.0 0.0 0.00 0.00 0.00 38 1011.4
20260503204831 64 0 0.0 0.0 0.00 0.00 0.00 39 1011.4
20260503204332 64 0 0.0 0.0 0.00 0.00 0.00 35 1011.4
20260503203830 64 0 0.0 0.0 0.00 0.00 0.00 38 1011.7
20260503203331 64 0 0.0 0.0 0.00 0.00 0.00 38 1011.7
20260503202832 64 0 0.0 0.0 0.00 0.00 0.00 35 1011.7
20260503202330 64 0 0.0 0.0 0.00 0.00 0.00 37 1011.9
20260503201831 64 0 0.0 0.0 0.00 0.00 0.00 39 1011.9
20260503201331 64 0 0.0 0.0 0.00 0.00 0.00 37 1011.9
20260503200831 64 0 0.0 0.0 0.00 0.00 0.00 36 1012.0
20260503200337 64 0 0.0 0.0 0.00 0.00 0.00 37 1012.0
20260503195832 64 0 0.0 0.0 0.00 0.00 0.00 38 1012.0
20260503195335 64 0 0.0 0.0 0.00 0.00 0.00 36 1012.2
20260503194831 64 0 0.0 0.0 0.00 0.00 0.00 38 1012.2
20260503194331 64 0 0.0 0.0 0.00 0.00 0.00 38 1012.2
20260503193831 64 0 0.0 0.0 0.00 0.00 0.00 37 1012.5
20260503193331 63 0 0.0 0.0 0.00 0.00 0.00 38 1012.5
20260503192834 63 0 0.0 0.0 0.00 0.00 0.00 39 1012.5
20260503192331 63 0 0.0 0.0 0.00 0.00 0.00 39 1012.6
20260503191831 63 0 0.0 0.0 0.00 0.00 0.00 39 1012.6
20260503191337 63 0 0.0 0.0 0.00 0.00 0.00 36 1012.6
20260503190833 64 0 0.0 0.0 0.00 0.00 0.00 39 1012.9
20260503190334 64 0 0.0 0.0 0.00 0.00 0.00 40 1012.9
20260503185833 63 0 0.0 0.0 0.00 0.00 0.00 39 1012.9
20260503185333 63 0 0.0 0.0 0.00 0.00 0.00 39 1013.1
20260503184835 63 0 0.0 0.0 0.00 0.00 0.00 35 1013.1
20260503184331 63 0 0.0 0.0 0.00 0.00 0.00 39 1013.1
20260503183831 63 0 0.0 0.0 0.00 0.00 0.00 39 1013.1
20260503183330 62 0 0.0 0.0 0.00 0.00 0.00 41 1013.1
20260503182513 62 0 0.0 1.0 0.00 0.00 0.00 40 1013.1
20260503182011 62 0 0.0 0.0 0.00 0.00 0.00 41 1013.6
20260503181508 62 0 0.0 0.0 0.00 0.00 0.00 36 1013.6
20260503181008 62 0 0.0 0.0 0.00 0.00 0.00 39 1013.6
20260503180510 62 0 0.0 0.0 0.00 0.00 0.00 39 1013.7
20260503180013 61 0 0.0 1.0 0.00 0.00 0.00 37 1013.7
20260503175509 61 0 0.0 1.0 0.00 0.00 0.00 40 1013.7
20260503175008 61 0 0.0 0.0 0.00 0.00 0.00 38 1013.7
20260503174513 61 0 0.0 0.0 0.00 0.00 0.00 39 1013.7
20260503174009 61 0 0.0 0.0 0.00 0.00 0.00 41 1013.7
20260503173508 61 0 0.0 0.0 0.00 0.00 0.00 37 1013.8
20260503173008 61 0 0.0 0.0 0.00 0.00 0.00 40 1013.8
20260503172508 61 0 0.0 0.0 0.00 0.00 0.00 39 1013.8
20260503172008 60 0 0.0 0.0 0.00 0.00 0.00 39 1014.1
20260503171514 60 0 0.0 0.0 0.00 0.00 0.00 39 1014.1
20260503171008 60 0 0.0 0.0 0.00 0.00 0.00 39 1014.1
20260503170508 60 0 0.0 0.0 0.00 0.00 0.00 40 1014.4
20260503150607 56 0 0.0 0.0 0.00 0.00 0.00 48 1015.1
20260503150106 56 0 0.0 2.0 0.00 0.00 0.00 47 1015.1
20260503140108 52 0 0.0 0.0 0.00 0.00 0.00 55 1014.8
20260503131108 49 0 0.0 1.0 0.00 0.00 0.00 58 1014.6
20260503130609 49 0 0.0 1.0 0.00 0.00 0.00 60 1014.6
20260503130106 48 0 0.0 1.0 0.00 0.00 0.00 69 1014.6
20260503120114 46 0 0.0 0.0 0.00 0.00 0.00 68 1014.2
20260503110606 44 0 0.0 0.0 0.00 0.00 0.00 69 1013.5
20260503110107 44 0 0.0 0.0 0.00 0.00 0.00 69 1013.5
20260503100106 45 0 0.0 0.0 0.00 0.00 0.00 66 1012.4
20260503090106 45 0 0.0 0.0 0.00 0.00 0.00 66 1011.9
20260503081334 46 0 0.0 0.0 0.00 0.00 0.00 65 1011.6
20260503080834 46 0 0.0 0.0 0.00 0.00 0.00 65 1011.5
20260503080333 46 0 0.0 0.0 0.00 0.00 0.00 65 1011.5
20260503072834 46 0 0.0 0.0 0.00 0.00 0.00 64 1011.3
20260503072337 46 0 0.0 0.0 0.00 0.00 0.00 64 1011.0
20260503071834 46 0 0.0 2.0 0.00 0.00 0.00 64 1011.0
20260503071335 47 0 0.0 2.0 0.00 0.00 0.00 63 1011.0
20260503070834 47 0 0.0 1.0 0.00 0.00 0.00 63 1010.9
20260503070334 47 0 0.0 1.0 0.00 0.00 0.00 62 1010.9
20260503060333 48 0 0.0 1.0 0.00 0.00 0.00 59 1010.7
20260503054833 49 0 0.0 0.0 0.00 0.00 0.00 58 1010.7
20260503054334 49 0 0.0 0.0 0.00 0.00 0.00 58 1010.7
20260503053833 49 0 0.0 0.0 0.00 0.00 0.00 58 1010.7
20260503053334 49 0 0.0 2.0 0.00 0.00 0.00 58 1010.7
20260503052834 49 0 0.0 2.0 0.00 0.00 0.00 59 1010.7
20260503052333 49 0 0.0 1.0 0.00 0.00 0.00 58 1010.6
20260503051837 49 0 0.0 0.0 0.00 0.00 0.00 58 1010.6
20260503051334 50 0 0.0 1.0 0.00 0.00 0.00 58 1010.6
20260503050833 50 0 0.0 1.0 0.00 0.00 0.00 57 1010.5
20260503050334 50 0 0.0 0.0 0.00 0.00 0.00 57 1010.5
20260503045834 50 0 0.0 0.0 0.00 0.00 0.00 57 1010.5
20260503045333 50 0 0.0 0.0 0.00 0.00 0.00 57 1010.4
20260503044834 50 0 0.0 0.0 0.00 0.00 0.00 56 1010.4
20260503044334 50 0 0.0 0.0 0.00 0.00 0.00 56 1010.4
20260503043833 51 0 0.0 0.0 0.00 0.00 0.00 56 1010.3
20260503043334 51 0 0.0 1.0 0.00 0.00 0.00 55 1010.3
20260503042836 51 0 0.0 1.0 0.00 0.00 0.00 56 1010.3
20260503042338 51 0 0.0 0.0 0.00 0.00 0.00 56 1010.3
20260503041834 51 0 0.0 0.0 0.00 0.00 0.00 55 1010.3
20260503041333 51 0 0.0 0.0 0.00 0.00 0.00 56 1010.3
20260503040834 51 0 0.0 0.0 0.00 0.00 0.00 56 1010.1
20260503040334 51 0 0.0 0.0 0.00 0.00 0.00 56 1010.1
20260503035836 51 0 0.0 0.0 0.00 0.00 0.00 56 1010.1
20260503035334 51 0 0.0 0.0 0.00 0.00 0.00 56 1009.9
20260503034833 51 0 0.0 0.0 0.00 0.00 0.00 56 1009.9